Location: Aufkirchen
(47.9603°N, 11.3653°E)
Time: 16:43:38
(UTC+01:00)

Transit 2A - Pass Details

Date: 29 November 2020
Orbit: 599 x 960 km, 66.7° (Epoch: 26 January)

Event Time Altitude Azimuth Distance (km) Brightness Sun altitude
Rises 23:58:06 0° 325° (NW) 3,418 - -63.5°
Reaches altitude 10° 00:01:33 10° 345° (NNW) 2,404 - -63.5°
Maximum altitude 00:05:08 17° 26° (NNE) 1,858 - -63.5°
Drops below altitude 10° 00:08:31 10° 67° (ENE) 2,236 - -63.5°
Sets 00:11:34 0° 88° (E) 3,082 - -63.5°
